User: anonymous   Login
Location: Maiden
(35.5760°N, 81.2120°W)
Time: 00:28:24
(UTC-05:00)
Language:

Cosmos 2151 - Orbit

View from above orbital plane
View from above orbital plane
View from above satellite
View from above satellite

Ground track
Ground track

The orbit data is extracted from the following two-line orbital elements,

1 21422U 91042A   17056.85542654  .00000322  00000-0  29433-4 0  9997
2 21422  82.5033 352.3883 0013102 311.0281  48.9805 14.91779350391901
Epoch (UTC): 25 February 2017 20:31:48
Eccentricity: 0.0013102
inclination: 82.5033°
perigee height: 583 km
apogee height: 601 km
right ascension of ascending node: 352.3883°
argument of perigee: 311.0281°
revolutions per day: 14.91779350
mean anomaly at epoch: 48.9805°
orbit number at epoch: 39190

The dashed part of the orbit path shows where the satellite is in the earth's shadow,  

DLR